TimeCST,TemperatureF,Dew PointF,Humidity,Sea Level PressureIn,VisibilityMPH,Wind Direction,Wind SpeedMPH,Gust SpeedMPH,PrecipitationIn,Events,Conditions,WindDirDegrees,DateUTC
12:15 AM,7.5,3.2,82,29.93,10.0,North,3.5,-,N/A,,Overcast,360,2012-12-28 06:15:00
12:35 AM,9.1,5.0,83,29.93,10.0,NW,8.1,-,N/A,,Overcast,310,2012-12-28 06:35:00
12:55 AM,9.5,5.5,84,29.93,10.0,WNW,9.2,-,N/A,Snow,Light Snow,300,2012-12-28 06:55:00
1:15 AM,10.2,5.9,83,29.93,10.0,NW,6.9,-,N/A,,Overcast,310,2012-12-28 07:15:00
1:35 AM,10.0,5.7,83,29.93,10.0,NW,8.1,-,N/A,,Overcast,310,2012-12-28 07:35:00
1:55 AM,9.7,5.5,83,29.94,7.0,NW,9.2,-,N/A,Snow,Light Snow,310,2012-12-28 07:55:00
2:15 AM,9.7,5.7,84,29.94,10.0,WNW,5.8,-,N/A,Snow,Light Snow,300,2012-12-28 08:15:00
2:35 AM,9.7,5.9,85,29.96,10.0,WNW,3.5,-,N/A,Snow,Light Snow,290,2012-12-28 08:35:00
2:55 AM,10.8,6.6,83,29.96,7.0,NW,5.8,-,N/A,Snow,Light Snow,320,2012-12-28 08:55:00
3:15 AM,10.9,6.6,83,29.97,7.0,NW,4.6,-,N/A,Snow,Light Snow,320,2012-12-28 09:15:00
3:35 AM,10.4,5.7,81,29.96,10.0,NW,12.7,-,N/A,,Overcast,320,2012-12-28 09:35:00
3:55 AM,10.4,5.7,81,29.96,10.0,NNW,10.4,-,N/A,Snow,Light Snow,330,2012-12-28 09:55:00
4:15 AM,9.9,5.0,81,29.97,10.0,NW,8.1,-,N/A,Snow,Light Snow,310,2012-12-28 10:15:00
4:35 AM,7.9,3.6,83,29.97,7.0,NW,8.1,-,N/A,Snow,Light Snow,310,2012-12-28 10:35:00
5:15 AM,5.7,1.6,83,29.96,7.0,NW,8.1,-,N/A,Snow,Light Snow,320,2012-12-28 11:15:00
5:35 AM,5.5,1.4,83,29.96,5.0,NW,3.5,-,N/A,Snow,Light Snow,310,2012-12-28 11:35:00
5:55 AM,5.5,1.4,83,29.97,3.0,Calm,Calm,-,N/A,Snow,Light Snow,0,2012-12-28 11:55:00
6:35 AM,6.8,2.7,83,29.97,4.0,NNW,3.5,-,N/A,Snow,Light Snow,330,2012-12-28 12:35:00
6:55 AM,8.2,4.3,84,29.97,5.0,NNW,6.9,-,N/A,Snow,Light Snow,330,2012-12-28 12:55:00
7:15 AM,8.6,4.6,84,29.98,4.0,NW,4.6,-,N/A,Snow,Light Snow,320,2012-12-28 13:15:00
7:35 AM,9.1,5.0,83,29.98,7.0,NNW,8.1,-,N/A,Snow,Light Snow,340,2012-12-28 13:35:00
7:55 AM,9.0,5.0,84,29.98,10.0,NNW,10.4,-,N/A,Snow,Light Snow,340,2012-12-28 13:55:00
8:15 AM,8.6,4.8,85,29.98,5.0,NNW,9.2,-,N/A,Snow,Light Snow,340,2012-12-28 14:15:00
8:35 AM,8.6,4.8,85,29.98,4.0,NW,6.9,-,N/A,Snow,Light Snow,320,2012-12-28 14:35:00
8:55 AM,8.4,4.6,85,29.98,1.8,NNW,6.9,-,N/A,Snow,Light Snow,330,2012-12-28 14:55:00
9:15 AM,8.4,4.6,85,29.99,1.8,NW,5.8,-,N/A,Snow,Light Snow,320,2012-12-28 15:15:00
9:35 AM,8.6,4.8,85,29.99,2.5,NNW,8.1,-,N/A,Snow,Light Snow,340,2012-12-28 15:35:00
9:55 AM,8.6,4.8,85,30.00,4.0,NW,8.1,-,N/A,Snow,Light Snow,320,2012-12-28 15:55:00
10:15 AM,7.7,3.9,85,30.01,4.0,NNW,10.4,-,N/A,Snow,Light Snow,330,2012-12-28 16:15:00
10:35 AM,7.7,4.1,85,30.02,2.5,NW,9.2,-,N/A,Snow,Light Snow,310,2012-12-28 16:35:00
10:55 AM,7.7,4.1,85,30.02,4.0,NW,6.9,-,N/A,Snow,Light Snow,320,2012-12-28 16:55:00
11:15 AM,8.6,4.5,83,30.02,7.0,NW,6.9,-,N/A,Snow,Light Snow,310,2012-12-28 17:15:00
11:35 AM,9.3,4.5,81,30.01,10.0,NNW,6.9,-,N/A,Snow,Light Snow,340,2012-12-28 17:35:00
11:55 AM,9.5,4.5,80,30.00,10.0,NNW,3.5,-,N/A,,Clear,340,2012-12-28 17:55:00
12:15 PM,11.1,5.4,78,29.99,10.0,NW,4.6,-,N/A,,Clear,310,2012-12-28 18:15:00
12:35 PM,12.7,6.3,75,29.98,10.0,NW,8.1,-,N/A,,Clear,320,2012-12-28 18:35:00
12:55 PM,14.2,7.0,73,29.97,10.0,NW,5.8,-,N/A,,Clear,310,2012-12-28 18:55:00
1:15 PM,15.3,7.7,72,29.96,10.0,NW,6.9,-,N/A,,Clear,320,2012-12-28 19:15:00
1:35 PM,16.3,8.4,71,29.96,10.0,NW,5.8,-,N/A,,Clear,320,2012-12-28 19:35:00
1:55 PM,16.5,8.2,70,29.96,10.0,NNW,5.8,-,N/A,,Clear,330,2012-12-28 19:55:00
2:15 PM,17.2,8.8,69,29.96,10.0,NNW,5.8,-,N/A,,Clear,330,2012-12-28 20:15:00
2:35 PM,18.0,9.3,69,29.96,10.0,NNW,5.8,-,N/A,,Clear,340,2012-12-28 20:35:00
2:55 PM,19.0,9.9,67,29.97,10.0,NW,5.8,-,N/A,,Clear,320,2012-12-28 20:55:00
3:15 PM,19.8,10.4,67,29.97,10.0,West,9.2,-,N/A,,Clear,280,2012-12-28 21:15:00
3:35 PM,19.6,10.2,67,29.97,10.0,WNW,9.2,-,N/A,,Clear,290,2012-12-28 21:35:00
3:55 PM,19.4,9.5,65,29.98,10.0,NW,3.5,-,N/A,,Clear,310,2012-12-28 21:55:00
4:35 PM,18.9,9.1,66,29.98,10.0,NW,3.5,-,N/A,,Clear,320,2012-12-28 22:35:00
4:55 PM,16.7,8.6,70,29.98,10.0,WNW,4.6,-,N/A,,Clear,300,2012-12-28 22:55:00
5:15 PM,13.1,6.8,76,29.98,10.0,West,5.8,-,N/A,,Clear,270,2012-12-28 23:15:00
5:55 PM,10.2,5.2,80,29.99,10.0,West,4.6,-,N/A,,Clear,280,2012-12-28 23:55:00
6:15 PM,9.3,4.1,79,29.99,10.0,SW,4.6,-,N/A,,Clear,230,2012-12-29 00:15:00
6:35 PM,7.5,2.8,81,29.99,10.0,WSW,4.6,-,N/A,,Clear,250,2012-12-29 00:35:00
6:55 PM,6.8,2.7,83,30.00,10.0,West,3.5,-,N/A,,Clear,270,2012-12-29 00:55:00
7:15 PM,5.0,1.6,86,30.01,10.0,West,3.5,-,N/A,,Clear,280,2012-12-29 01:15:00
7:35 PM,6.6,3.0,85,30.01,10.0,Calm,Calm,-,N/A,,Clear,0,2012-12-29 01:35:00
7:55 PM,7.9,4.1,85,30.01,10.0,West,5.8,-,N/A,,Clear,260,2012-12-29 01:55:00
8:15 PM,7.2,3.4,85,30.02,10.0,West,4.6,-,N/A,,Clear,280,2012-12-29 02:15:00
8:35 PM,5.0,1.2,84,30.02,10.0,Calm,Calm,-,N/A,,Scattered Clouds,0,2012-12-29 02:35:00
8:55 PM,5.2,1.4,84,30.02,10.0,West,3.5,-,N/A,,Scattered Clouds,260,2012-12-29 02:55:00
9:15 PM,5.5,1.9,85,30.02,10.0,WSW,5.8,-,N/A,,Mostly Cloudy,250,2012-12-29 03:15:00
9:35 PM,6.4,2.3,83,30.03,10.0,West,4.6,-,N/A,,Overcast,260,2012-12-29 03:35:00
9:55 PM,6.6,2.3,82,30.03,10.0,WSW,4.6,-,N/A,,Overcast,250,2012-12-29 03:55:00
10:15 PM,8.4,4.5,84,30.03,10.0,WNW,3.5,-,N/A,,Overcast,290,2012-12-29 04:15:00
10:35 PM,7.7,3.9,85,30.03,10.0,West,3.5,-,N/A,,Overcast,280,2012-12-29 04:35:00
10:55 PM,8.2,4.1,83,30.03,10.0,West,5.8,-,N/A,,Overcast,280,2012-12-29 04:55:00
11:15 PM,13.3,9.1,84,30.04,10.0,WNW,8.1,-,N/A,,Overcast,290,2012-12-29 05:15:00
11:35 PM,14.5,10.2,83,30.04,10.0,West,9.2,-,N/A,,Overcast,280,2012-12-29 05:35:00
11:55 PM,14.9,10.4,82,30.04,10.0,WNW,5.8,-,N/A,,Scattered Clouds,290,2012-12-29 05:55:00